London, United Kingdom

1:07 AM GMT on March 24, 2017 (GMT +0000)
Heathrow Airport

Weather History for EGLL - June, 2013

Change the Weather History Date:

Friday, June 14, 2013

  Actual Average Record
Temperature  
Mean Temperature 58 °F -  
Max Temperature 67 °F 69 °F 84 °F (2004)
Min Temperature 48 °F 53 °F 46 °F (2005)
Degree Days  
Heating Degree Days 8    
Growing Degree Days 8 (Base 50)    
Moisture  
Dew Point 47 °F    
Average Humidity 67    
Maximum Humidity 88    
Minimum Humidity 27    
Precipitation  
Precipitation 0.00 in - - ()
Sea Level Pressure  
Sea Level Pressure 30.00 in    
Wind  
Wind Speed 10 mph ()    
Max Wind Speed 16 mph    
Max Gust Speed 26 mph    
Visibility 7.8 miles    
Events Rain    
Averages and records for this station are not official NWS values.
T = Trace of Precipitation, MM = Missing Value Source: Averaged Metar Reports

Daily Weather History Graph

Daily Weather History Graph

Search for Another Location

Airport or City:

Trip Planner

Search our weather history database for the weather conditions in past years. The results will help you decide how hot, cold, wet, or windy it might be!

Date:

Astronomy

Jun. 14, 2013 Rise Set
Actual Time 4:44 AM BST 9:20 PM BST
Civil Twilight 3:56 AM BST 10:07 PM BST
Nautical Twilight 2:43 AM BST 11:21 PM BST
Astronomical Twilight 1:34 AM BST 12:29 AM BST
Moon 10:39 AM BST (6/14) No Moon Set
Length of Visible Light 18h 10m
Length of Day
16h 35m
Waxing Crescent, 28% of the Moon is Illuminated
Jun 14
Waxing Crescent
Jun 16
First Quarter
Jun 23
Full
Jun 30
Last Quarter
Jul 8
New

Hourly Weather History & Observations

Time (BST) Temp. Dew Point Humidity Pressure Visibility Wind Dir Wind Speed Gust Speed Precip Events Conditions
12:20 AM 53.6 °F 46.4 °F 77% 30.06 in - WSW 11.5 mph - N/A   Clear
12:50 AM 52 °F 46 °F 71% 30.07 in 19 mi SW 9.2 mph - -  
12:50 AM 53.6 °F 46.4 °F 77% 30.06 in - WSW 9.2 mph - N/A   Clear
1:20 AM 51.8 °F 46.4 °F 82% 30.06 in 6.2 mi WSW 6.9 mph - N/A   Unknown
1:50 AM 51.8 °F 46.4 °F 82% 30.06 in 6.2 mi WSW 6.9 mph - N/A   Unknown
2:20 AM 51.8 °F 44.6 °F 76% 30.06 in 6.2 mi WSW 10.4 mph - N/A   Unknown
2:50 AM 50.0 °F 44.6 °F 82% 30.06 in - WSW 10.4 mph - N/A   Clear
3:50 AM 49 °F 45 °F 79% 30.07 in 19 mi SW 8.1 mph - -  
3:50 AM 50.0 °F 44.6 °F 82% 30.06 in - WSW 6.9 mph - N/A   Clear
4:20 AM 48.2 °F 44.6 °F 87% 30.06 in - SSW 6.9 mph - N/A   Clear
4:50 AM 48.2 °F 44.6 °F 87% 30.06 in - SSW 6.9 mph - N/A   Clear
5:20 AM 48.2 °F 44.6 °F 87% 30.06 in - SW 6.9 mph - N/A   Clear
5:50 AM 50.0 °F 46.4 °F 87% 30.06 in - SSW 6.9 mph - N/A   Clear
6:20 AM 50.0 °F 46.4 °F 87% 30.06 in 6.2 mi SSW 8.1 mph - N/A   Partly Cloudy
6:50 AM 52 °F 47 °F 79% 30.07 in 16 mi South 6.9 mph - -  
6:50 AM 51.8 °F 48.2 °F 88% 30.06 in 6.2 mi SSW 9.2 mph - N/A   Mostly Cloudy
7:20 AM 53.6 °F 48.2 °F 82% 30.06 in 6.2 mi SSW 8.1 mph - N/A   Mostly Cloudy
7:50 AM 55.4 °F 50.0 °F 82% 30.06 in 6.2 mi SSW 10.4 mph - N/A   Mostly Cloudy
8:20 AM 55.4 °F 50.0 °F 82% 30.06 in 6.2 mi SSW 8.1 mph - N/A   Mostly Cloudy
8:50 AM 57.2 °F 51.8 °F 82% 30.06 in 6.2 mi SW 12.7 mph - N/A   Mostly Cloudy
9:20 AM 59.0 °F 51.8 °F 77% 30.06 in 6.2 mi SW 12.7 mph - N/A   Scattered Clouds
9:50 AM 58 °F 51 °F 69% 30.06 in 14 mi SSW 12.7 mph - -   Scattered Clouds
9:50 AM 59.0 °F 51.8 °F 77% 30.06 in 6.2 mi SSW 12.7 mph - N/A   Mostly Cloudy
10:20 AM 57.2 °F 50.0 °F 77% 30.06 in 6.2 mi SSW 13.8 mph - N/A   Mostly Cloudy
10:50 AM 59.0 °F 51.8 °F 77% 30.06 in 6.2 mi SSW 13.8 mph - N/A   Mostly Cloudy
11:20 AM 60.8 °F 50.0 °F 68% 30.04 in 6.2 mi SSW 11.5 mph - N/A   Scattered Clouds
11:50 AM 62.6 °F 50.0 °F 63% 30.04 in 6.2 mi South 13.8 mph - N/A   Scattered Clouds
12:20 PM 62.6 °F 48.2 °F 59% 30.01 in 6.2 mi South 12.7 mph - N/A   Scattered Clouds
12:50 PM 62 °F 48 °F 50% 30.03 in 22 mi South 12.7 mph - -   Scattered Clouds
12:50 PM 62.6 °F 48.2 °F 59% 30.01 in 6.2 mi South 15.0 mph - N/A   Scattered Clouds
1:20 PM 64.4 °F 48.2 °F 56% 30.01 in 6.2 mi South 15.0 mph - N/A   Scattered Clouds
1:50 PM 66.2 °F 46.4 °F 49% 30.01 in 6.2 mi SSW 15.0 mph - N/A   Partly Cloudy
2:20 PM 68.0 °F 46.4 °F 46% 30.01 in 6.2 mi SSW 15.0 mph - N/A   Scattered Clouds
2:50 PM 66.2 °F 44.6 °F 46% 29.98 in 6.2 mi South 13.8 mph - N/A   Scattered Clouds
3:20 PM 66.2 °F 44.6 °F 46% 29.98 in 6.2 mi South 15.0 mph - N/A   Partly Cloudy
3:50 PM 66 °F 40 °F 27% 29.97 in 22 mi South 16.1 mph - -   Scattered Clouds
3:50 PM 66.2 °F 41.0 °F 40% 29.98 in 6.2 mi SSW 15.0 mph - N/A   Partly Cloudy
4:20 PM 66.2 °F 41.0 °F 40% 29.95 in - SSW 13.8 mph - N/A   Clear
4:50 PM 66.2 °F 39.2 °F 37% 29.95 in - South 16.1 mph - N/A   Clear
5:20 PM 66.2 °F 37.4 °F 35% 29.95 in - South 16.1 mph - N/A   Clear
5:50 PM 64.4 °F 39.2 °F 40% 29.95 in - South 15.0 mph - N/A   Clear
6:20 PM 62.6 °F 42.8 °F 48% 29.95 in 6.2 mi SSW 15.0 mph 26.5 mph N/A   Partly Cloudy
6:50 PM 62 °F 47 °F 48% 29.94 in 19 mi South 13.8 mph - -   Scattered Clouds
6:50 PM 62.6 °F 46.4 °F 55% 29.92 in 6.2 mi South 15.0 mph - N/A   Partly Cloudy
7:20 PM 60.8 °F 48.2 °F 63% 29.92 in 6.2 mi SSW 10.4 mph - N/A   Partly Cloudy
7:50 PM 60.8 °F 48.2 °F 63% 29.92 in 6.2 mi South 10.4 mph - N/A   Partly Cloudy
8:20 PM 60.8 °F 48.2 °F 63% 29.92 in 6.2 mi South 11.5 mph - N/A   Partly Cloudy
8:50 PM 59.0 °F 48.2 °F 67% 29.89 in - SSE 11.5 mph - N/A   Clear
9:20 PM 59.0 °F 50.0 °F 72% 29.89 in 6.2 mi South 8.1 mph - N/A Rain Light Rain
9:50 PM 59 °F 49 °F 59% 29.87 in 22 mi SSE 10.4 mph - - Rain Rain
9:50 PM 59.0 °F 50.0 °F 72% 29.86 in 6.2 mi SSE 10.4 mph - N/A   Partly Cloudy
10:20 PM 59.0 °F 48.2 °F 67% 29.86 in - SSE 11.5 mph - N/A   Clear
10:50 PM 59.0 °F 48.2 °F 67% 29.83 in - SSE 9.2 mph - N/A   Clear
11:20 PM 59.0 °F 50.0 °F 72% 29.83 in - SSE 11.5 mph - N/A   Clear
11:50 PM 59.0 °F 48.2 °F 67% 29.80 in - SSE 10.4 mph - N/A   Clear